NIMBUS 2 DEB

基本信息
目录编号:
40646
目录名称:
NIMBUS 2 DEB
国际标识:
1966-040BK
轨道中心:
EARTH
物体状态:
在轨
发射日期:
1966-05-15 UTC
轨道信息
数据来源: 国际轨道数据
星历时间: 2026-07-13T23:44:15+0800
半长轴: 7452.92km
偏心率: 0.005406
轨道倾角: 100.372°
近地点辐角: 58.151°
升交点赤经: 89.377°
平近点角: 302.486°
近地点: 1034.492km
远地点: 1115.074km
周期: 106.721分钟
每日圈数: 13.493142
详细信息
发射场:
AFWTR
轨道高度:
LEO
数据来源:
AOE Integration Group
参考系:
TEME
时间系统:
UTC
历元类型:
SGP4
2D轨道图
3D轨道图
轨道高度分析图
轨道倾角分析图
轨道综合分析图
查看轨道综合分析图